Tracking 17925 objects as of 23-January-2017
HD Live streaming from Space Station
objects crossing your sky now

NAVSTAR 19 (USA 54)

Track NAVSTAR 19 (USA 54) now!
NAVSTAR 19 (USA 54) is classified as:


NORAD ID: 20533
Int'l Code: 1990-025A
Perigee: 20,965.3 km
Apogee: 21,172.2 km
Inclination: 55.6 °
Period: 753.9 minutes
Semi major axis: 27439 km
RCS: 0.6015 m2 (medium)
Launch date: March 26, 1990
Source: United States (US)
Launch site: AIR FORCE EASTERN TEST RANGE (AFETR)
PRN:
Your satellite tracking list
Your tracking list is empty





NASA's NSSDC Master Catalog

Two Line Element Set (TLE):
1 20533U 90025A   17023.19256714 -.00000066  00000-0  00000+0 0  9999
2 20533  55.5734  11.0484 0037702 155.7425 278.7255  1.91038932189527
Source of the keplerian elements: AFSPC